Regional Weather Roundup
Issued by NWS Wilmington, NC

Home | Current Version | Previous Version | Text Only | Print | Product List | Glossary On
Versions: 1 2 3 4 5 6 7 8 9 10 11 12 13 14 15 16 17 18 19 20 21 22 23 24 25 26 27 28 29 30 31 32 33 34 35 36 37 38 39 40 41 42 43 44 45 46 47 48 49 50
000
ASUS42 KILM 040013
RWRILM
RWRILM
REGIONAL HOURLY WEATHER ROUNDUP
NATIONAL WEATHER SERVICE WILMINGTON NC
800 PM EDT SUN MAY 03 2015

NOTE: "FAIR" INDICATES FEW OR NO CLOUDS BELOW 12,000 FEET WITH NO
SIGNIFICANT WEATHER AND/OR OBSTRUCTIONS TO VISIBILITY.

...............WFO WILMINGTON COUNTY WARNING AREA...............

......COASTAL NC AND SC COUNTIES......

CITY           SKY/WX    TMP DP  RH WIND       PRES   REMARKS
WILMINGTON     CLEAR     68  48  48 S7        30.19R
N MYRTLE BEACH CLEAR     69  57  65 SE5       30.19S
MYRTLE BEACH   CLEAR     70  57  64 S10       30.21R

......INLAND NC AND SC COUNTIES.......

CITY           SKY/WX    TMP DP  RH WIND       PRES   REMARKS
LUMBERTON      CLEAR     72  49  44 S7        30.16R
ELIZABETHTOWN  CLEAR     71  41  33 S7        30.17R
WHITEVILLE     CLEAR     70  48  46 S3        30.18R
FLORENCE       CLEAR     73  51  46 SE10      30.16R
DARLINGTON     CLEAR     73  48  40 CALM      30.16S

....................REST OF NORTH CAROLINA......................

.........EASTERN NC.........

CITY           SKY/WX    TMP DP  RH WIND       PRES   REMARKS
CAPE HATTERAS  CLEAR     60  58  92 SW5       30.19R
JACKSONVILLE   CLEAR     68  45  42 S7        30.19R
MOREHEAD CITY  CLEAR     65  56  72 SW5       30.20R
KENANSVILLE    CLEAR     70  41  34 SE3       30.18R
NEW BERN       CLOUDY    70  42  36 S7        30.19R
ELIZABETH CITY PTCLDY    64  53  67 S6        30.16R

.........CENTRAL NC.........

CITY           SKY/WX    TMP DP  RH WIND       PRES   REMARKS
RALEIGH DURHAM PTCLDY    68  49  50 CALM      30.16S
ROCKY MOUNT    CLEAR     67  51  56 CALM      30.16R
ROANOKE RAPIDS NOT AVBL
FAYETTEVILLE   PTCLDY    75  51  43 S3        30.15R
HOFFMAN        CLEAR     69  56  63 S2        30.19R

.........WESTERN NC.........

CITY           SKY/WX    TMP DP  RH WIND       PRES   REMARKS
CHARLOTTE      PTCLDY    71  47  42 S6        30.15R
GREENSBORO     PTCLDY    70  45  40 S6        30.15R
HICKORY        NOT AVBL
BOONE          NOT AVBL
ASHEVILLE      NOT AVBL

.....................REST OF SOUTH CAROLINA.....................

.........EASTERN SC.........

CITY           SKY/WX    TMP DP  RH WIND       PRES   REMARKS
CHARLESTON     PTCLDY    70  57  63 SE6       30.17R
BEAUFORT MCAS  CLEAR     73  53  49 S3        30.16R
HILTON HEAD    CLEAR     72  57  60 CALM      30.18R

.........CENTRAL SC.........

CITY           SKY/WX    TMP DP  RH WIND       PRES   REMARKS
COLUMBIA       PTCLDY    76  54  46 S5        30.14R
ORANGEBURG     CLEAR     75  51  43 SE3       30.15R
SUMTER SHAW    CLEAR     74  50  43 S3        30.13S

.........WESTERN SC.........

CITY           SKY/WX    TMP DP  RH WIND       PRES   REMARKS
GREENVILLE     NOT AVBL
ROCK HILL      CLEAR     72  50  45 CALM      30.15S
ANDERSON       CLEAR     72  52  49 S3        30.14S
CLEMSON        NOT AVBL
GREENWOOD      CLEAR     70  55  59 CALM      30.16R


...................COASTAL AND OFFSHORE REPORTS..................

................LOCAL PIERS AND NC RESERVE................


STATION/POSITION TIME  SKY/WX   TEMP    WIND        PRES    VSBY
                                AIR SEA DIR/SP/G
                 (UTC)          (F)     (DEG/KT/KT) (MB)    (MI)
JOHNY MRCER PIER 2300            70 69  200/ 11/ 12 1021.6R
NC RESRV MASNBRO NOT AVBL
OCEAN CREST PIER 2302            70 70  130/  9/ 10 1021.5S
SPRINGMAID  PIER 2300            70 67  130/  6/  6 1022.1R


................COASTAL AND OFFSHORE BUOYS................


STATION/POSITION TIME  SKY/WX   TEMP    WIND        PRES    VSBY
                                AIR SEA DIR/SP/G
                 (UTC)          (F)     (DEG/KT/KT) (MB)    (MI)
DIMNDSHOAL 41025 2350            67 61  230/  6/  6 1022.2S
WVE H/P(F/S)=  4/11 WND WVE H/P(F/S)=  2/ 3 SWL H/P/D(F/S/D)=  5/ 70/11

CAPE LOOKOUT     0000            67     210/  4/  5 1022.3R
ONSLOW BAY 41036 NOT AVBL
5 WRITEBCH 41038 2308            70 68  190/ 10/ 12 1022.0R
MASONBORO  41110 2319               68                N/A
WVE H/P(F/S)=  2/12 WND WVE H/P(F/S)=  2/10 SWL H/P/D(F/S/D)=  2/100/12

WILM HARBR 41108 2311               68                N/A
WVE H/P(F/S)=  2/10 WND WVE H/P(F/S)=  2/10 SWL H/P/D(F/S/D)=  2/110/11

27WRITEBCH 41037 2300            69 73  200/ 10/ 12   N/A
FRYING PAN 41013 2350            73 74  140/  6/  8 1023.4R
WVE H/P(F/S)=  4/13 SWL H/P/D(F/S/D)=  3/100/13

SUNST NRSH 41024 2308            69     140/  8/ 10 1022.1S
CAPRS NRSH 41029 2308            71     150/  8/ 10 1021.7R
EDISTO     41004 2350            72 75  130/  6/  8 1021.8R
WVE H/P(F/S)=  2/10 SWL H/P/D(F/S/D)=  2/10



..........OFFSHORE BUOYS BEYOND 100 NM OFFSHORE...........
.....IN A TRIANGLE---HAT TO BERMUDA TO BAHAMAS TO HAT.....


STATION/POSITION TIME  SKY/WX   TEMP    WIND        PRES    VSBY
                                AIR SEA DIR/SP/G
                 (UTC)          (F)     (DEG/KT/KT) (MB)    (MI)
150E HAT   41001 NOT AVBL
W BERMUDA  41048 2350            68 70  360/ 12/ 16 1020.9R
WVE H/P(F/S)=  9/10 WND WVE H/P(F/S)=  3/ 5 SWL H/P/D(F/S/D)=  8/ 20/10

ATLANTIC S 41049 2350            74 77  350/  4/  8 1019.5R
WVE H/P(F/S)=  8/11 WND WVE H/P(F/S)=  2/ 4 SWL H/P/D(F/S/D)=  8/300/11

E BAHAMAS  41046 2350            78 80   40/ 16/ 17 1017.6R
WVE H/P(F/S)=  7/12 WND WVE H/P(F/S)=  5/ 6 SWL H/P/D(F/S/D)=  5/340/12

NE BAHAMAS 41047 2350            72 76   40/ 12/ 16 1019.5R
WVE H/P(F/S)=  8/11 WND WVE H/P(F/S)=  2/ 5 SWL H/P/D(F/S/D)=  8/11

120E CANVRL41010 2320            73 78   70/ 12/ 16 1021.6R

END


USA.gov is the U.S. government's official web portal to all federal, state and local government web resources and services.